Weather History for Lima, OH

Change the Weather History Date:

Tuesday, April 9, 2013

  Actual Average (KFDY) Record (KFDY)
Temperature  
Mean Temperature 66 °F -  
Max Temperature 82 °F 53 °F 82 °F (2013)
Min Temperature 50 °F 34 °F 14 °F (1957)
Cooling Degree Days 1    
Growing Degree Days 16 (Base 50)    
Moisture  
Dew Point 50 °F    
Average Humidity 55    
Maximum Humidity 80    
Minimum Humidity 36    
Precipitation  
Precipitation 0.00 in - - ()
Sea Level Pressure  
Sea Level Pressure 29.96 in    
Wind  
Wind Speed 8 mph (South)    
Max Wind Speed 23 mph    
Max Gust Speed 41 mph    
Visibility 10 miles    
Events      
Averages and records for this station are not official NWS values.
T = Trace of Precipitation, MM = Missing Value Source: NWS Daily Summary

Daily Weather History Graph

Daily Weather History Graph

Search for Another Location

Airport:

Trip Planner

Search our weather history database for the weather conditions in past years. The results will help you decide how hot, cold, wet, or windy it might be!

Date:

Astronomy

Apr. 09, 2013 Rise Set
Actual Time 7:06 AM EDT 8:09 PM EDT
Civil Twilight 6:38 AM EDT 8:37 PM EDT
Nautical Twilight 6:05 AM EDT 9:11 PM EDT
Astronomical Twilight 5:30 AM EDT 9:45 PM EDT
Moon 6:28 AM EDT (4/9) 7:44 PM EDT (4/9)
Length of Visible Light 13h 59m
Length of Day
13h 03m
Waning Crescent, 1% of the Moon is Illuminated
Apr 9
Waning Crescent
Apr 10
New
Apr 18
First Quarter
Apr 25
Full
May 2
Last Quarter

Hourly Weather History & Observations

Time (EDT) Temp. Heat Index Dew Point Humidity Pressure Visibility Wind Dir Wind Speed Gust Speed Precip Events Conditions
12:53 AM 59.0 °F - 50.0 °F 72% 29.99 in 10.0 mi Calm Calm - N/A   Mostly Cloudy
1:53 AM 57.0 °F - 48.0 °F 72% 30.01 in 10.0 mi NNW 3.5 mph - N/A   Overcast
2:53 AM 57.0 °F - 46.9 °F 69% 30.02 in 10.0 mi Calm Calm - N/A   Overcast
3:53 AM 55.9 °F - 48.0 °F 75% 30.01 in 10.0 mi NE 4.6 mph - N/A   Mostly Cloudy
4:53 AM 53.1 °F - 46.0 °F 77% 30.03 in 10.0 mi East 5.8 mph - N/A   Partly Cloudy
5:53 AM 50.0 °F - 44.1 °F 80% 30.03 in 10.0 mi ESE 8.1 mph - N/A   Partly Cloudy
6:53 AM 50.0 °F - 43.0 °F 77% 30.04 in 10.0 mi East 5.8 mph - N/A   Clear
7:53 AM 54.0 °F - 44.1 °F 69% 30.04 in 10.0 mi ESE 9.2 mph - N/A   Partly Cloudy
8:53 AM 57.9 °F - 45.0 °F 62% 30.04 in 10.0 mi ESE 9.2 mph - N/A   Clear
9:53 AM 62.1 °F - 45.0 °F 53% 30.03 in 10.0 mi SE 13.8 mph - N/A   Mostly Cloudy
10:53 AM 68.0 °F - 50.0 °F 52% 30.01 in 10.0 mi SSE 13.8 mph - N/A   Overcast
11:53 AM 73.0 °F - 53.1 °F 49% 29.98 in 10.0 mi South 15.0 mph - N/A   Partly Cloudy
12:53 PM 77.0 °F - 53.1 °F 43% 29.95 in 10.0 mi South 15.0 mph 24.2 mph N/A   Scattered Clouds
1:53 PM 80.1 °F 79.9 °F 53.1 °F 39% 29.91 in 10.0 mi SSW 20.7 mph 31.1 mph N/A   Partly Cloudy
2:53 PM 82.0 °F 81.3 °F 54.0 °F 38% 29.88 in 10.0 mi SSW 19.6 mph 27.6 mph N/A   Scattered Clouds
3:53 PM 81.0 °F - 52.0 °F 36% 29.86 in 10.0 mi SSW 21.9 mph 41.4 mph N/A   Mostly Cloudy
4:53 PM 80.1 °F 79.9 °F 53.1 °F 39% 29.88 in 10.0 mi SW 20.7 mph 34.5 mph N/A   Mostly Cloudy
5:53 PM 81.0 °F - 52.0 °F 36% 29.88 in 10.0 mi SW 23.0 mph 32.2 mph N/A   Scattered Clouds
6:53 PM 79.0 °F - 52.0 °F 39% 29.88 in 10.0 mi SW 21.9 mph 28.8 mph N/A   Clear
7:53 PM 75.9 °F - 53.1 °F 45% 29.89 in 10.0 mi SW 11.5 mph 20.7 mph N/A   Scattered Clouds
8:53 PM 75.0 °F - 53.1 °F 46% 29.90 in 10.0 mi SW 10.4 mph - N/A   Overcast
9:53 PM 73.0 °F - 52.0 °F 48% 29.91 in 10.0 mi SW 9.2 mph - N/A   Overcast
10:53 PM 72.0 °F - 52.0 °F 49% 29.91 in 10.0 mi SSW 10.4 mph - N/A   Overcast
11:53 PM 66.9 °F - 51.1 °F 57% 29.90 in 10.0 mi WSW 3.5 mph - N/A   Mostly Cloudy